Ibiza, Spain

12:32 AM CET on January 20, 2018 (GMT +0100)
Ibiza

Weather History for LEIB - April, 2013

Change the Weather History Date:

Tuesday, April 23, 2013

  Actual Average Record
Temperature  
Mean Temperature 57 °F -  
Max Temperature 67 °F 69 °F 79 °F (2014)
Min Temperature 47 °F 57 °F 45 °F (2017)
Degree Days  
Heating Degree Days 8    
Growing Degree Days 7 (Base 50)    
Moisture  
Dew Point 48 °F    
Average Humidity 71    
Maximum Humidity 100    
Minimum Humidity 35    
Precipitation  
Precipitation 0.00 in 0.03 in - ()
Sea Level Pressure  
Sea Level Pressure 30.14 in    
Wind  
Wind Speed 5 mph ()    
Max Wind Speed 16 mph    
Max Gust Speed -    
Visibility 6.7 miles    
Events      
Averages and records for this station are not official NWS values.
T = Trace of Precipitation, MM = Missing Value Source: Averaged Metar Reports

Daily Weather History Graph

Daily Weather History Graph

Search for Another Location

Airport or City:

Trip Planner

Search our weather history database for the weather conditions in past years. The results will help you decide how hot, cold, wet, or windy it might be!

Date:

Astronomy

Apr. 23, 2013 Rise Set
Actual Time 7:06 AM CEST 8:39 PM CEST
Civil Twilight 6:38 AM CEST 9:07 PM CEST
Nautical Twilight 6:04 AM CEST 9:41 PM CEST
Astronomical Twilight 5:29 AM CEST 10:17 PM CEST
Moon 6:18 PM CEST (4/23) 5:24 AM CEST (4/23)
Length of Visible Light 14h 28m
Length of Day
13h 32m
Waxing Gibbous, 92% of the Moon is Illuminated
Apr 23
Waxing Gibbous
Apr 25
Full
May 2
Last Quarter
May 10
New
May 18
First Quarter

Hourly Weather History & Observations

Time (CEST) Temp. Dew Point Humidity Pressure Visibility Wind Dir Wind Speed Gust Speed Precip Events Conditions
12:00 AM 51.8 °F 48.2 °F 88% 30.09 in - Variable 1.2 mph - N/A   Clear
12:30 AM 51.8 °F 48.2 °F 88% 30.09 in - Variable 1.2 mph - N/A   Clear
1:00 AM 50.0 °F 48.2 °F 94% 30.09 in - Variable 1.2 mph - N/A   Clear
1:30 AM 50.0 °F 48.2 °F 94% 30.09 in - Variable 1.2 mph - N/A   Clear
2:00 AM 49 °F 45 °F 82% 30.12 in 6 mi NNW 2.3 mph - -   Clear
2:00 AM 50.0 °F 48.2 °F 94% 30.09 in - Variable 1.2 mph - N/A   Clear
2:30 AM 50.0 °F 48.2 °F 94% 30.09 in - Variable 1.2 mph - N/A   Clear
3:00 AM 50.0 °F 48.2 °F 94% 30.09 in - Calm Calm - N/A   Clear
3:30 AM 50.0 °F 48.2 °F 94% 30.09 in 6.2 mi Calm Calm - N/A   Partly Cloudy
4:00 AM 50.0 °F 48.2 °F 94% 30.09 in 6.2 mi Variable 1.2 mph - N/A   Partly Cloudy
4:30 AM 50.0 °F 48.2 °F 94% 30.09 in 6.2 mi Calm Calm - N/A   Partly Cloudy
5:00 AM 48.2 °F 48.2 °F 100% 30.09 in - Calm Calm - N/A   Clear
5:30 AM 48.2 °F 46.4 °F 93% 30.09 in - Calm Calm - N/A   Clear
6:00 AM 48.2 °F 46.4 °F 93% 30.09 in - Calm Calm - N/A   Clear
6:30 AM 50.0 °F 48.2 °F 94% 30.12 in 6.2 mi Calm Calm - N/A   Partly Cloudy
7:00 AM 50.0 °F 48.2 °F 94% 30.12 in 6.2 mi Calm Calm - N/A   Partly Cloudy
7:30 AM 50.0 °F 48.2 °F 94% 30.12 in 6.2 mi NW 3.5 mph - N/A   Partly Cloudy
8:00 AM 52 °F 48 °F 82% 30.15 in 12 mi North 1.2 mph - -   Scattered Clouds
8:00 AM 51.8 °F 50.0 °F 94% 30.12 in 6.2 mi Variable 1.2 mph - N/A   Partly Cloudy
8:30 AM 55.4 °F 51.8 °F 88% 30.15 in 6.2 mi Calm Calm - N/A   Partly Cloudy
9:00 AM 59.0 °F 51.8 °F 77% 30.15 in 6.2 mi Variable 2.3 mph - N/A   Partly Cloudy
9:30 AM 60.8 °F 50.0 °F 68% 30.15 in 6.2 mi NNE 4.6 mph - N/A   Partly Cloudy
10:00 AM 62.6 °F 50.0 °F 63% 30.18 in 6.2 mi NE 5.8 mph - N/A   Partly Cloudy
10:30 AM 62.6 °F 51.8 °F 68% 30.18 in 6.2 mi East 6.9 mph - N/A   Partly Cloudy
11:00 AM 64.4 °F 51.8 °F 64% 30.18 in 6.2 mi East 8.1 mph - N/A   Partly Cloudy
11:30 AM 64.4 °F 53.6 °F 68% 30.18 in 6.2 mi East 10.4 mph - N/A   Partly Cloudy
12:00 PM 64.4 °F 53.6 °F 68% 30.18 in 6.2 mi ENE 11.5 mph - N/A   Partly Cloudy
12:30 PM 64.4 °F 53.6 °F 68% 30.18 in 6.2 mi ENE 13.8 mph - N/A   Partly Cloudy
1:00 PM 64.4 °F 51.8 °F 64% 30.18 in 6.2 mi ENE 13.8 mph - N/A   Scattered Clouds
1:30 PM 64.4 °F 51.8 °F 64% 30.18 in 6.2 mi ENE 13.8 mph - N/A   Partly Cloudy
2:00 PM 66 °F 49 °F 43% 30.20 in 12 mi ENE 15.0 mph - -   Scattered Clouds
2:00 PM 64.4 °F 50.0 °F 59% 30.18 in 6.2 mi ENE 13.8 mph - N/A   Partly Cloudy
2:30 PM 64.4 °F 48.2 °F 56% 30.18 in 6.2 mi ENE 11.5 mph - N/A   Partly Cloudy
3:00 PM 64.4 °F 48.2 °F 56% 30.18 in 6.2 mi East 13.8 mph - N/A   Partly Cloudy
3:30 PM 64.4 °F 50.0 °F 59% 30.15 in 6.2 mi ENE 13.8 mph - N/A   Partly Cloudy
4:00 PM 64.4 °F 50.0 °F 59% 30.15 in 6.2 mi ENE 16.1 mph - N/A   Partly Cloudy
4:30 PM 64.4 °F 50.0 °F 59% 30.15 in 6.2 mi ENE 16.1 mph - N/A   Scattered Clouds
5:00 PM 64.4 °F 50.0 °F 59% 30.15 in 6.2 mi ENE 16.1 mph - N/A   Scattered Clouds
5:30 PM 66.2 °F 48.2 °F 52% 30.15 in 6.2 mi ENE 13.8 mph - N/A   Scattered Clouds
6:00 PM 64.4 °F 50.0 °F 59% 30.15 in 6.2 mi ENE 13.8 mph - N/A   Partly Cloudy
6:30 PM 64.4 °F 46.4 °F 52% 30.15 in 6.2 mi ENE 12.7 mph - N/A   Partly Cloudy
7:00 PM 64.4 °F 42.8 °F 45% 30.15 in 6.2 mi NE 9.2 mph - N/A   Partly Cloudy
7:30 PM 64.4 °F 41.0 °F 42% 30.15 in - NE 12.7 mph - N/A   Clear
8:00 PM 63 °F 42 °F 35% 30.16 in 11 mi NNE 11.5 mph - -   Clear
8:00 PM 62.6 °F 41.0 °F 45% 30.15 in - NNE 11.5 mph - N/A   Clear
8:30 PM 60.8 °F 44.6 °F 55% 30.15 in - NNE 11.5 mph - N/A   Clear
9:00 PM 60.8 °F 46.4 °F 59% 30.15 in - North 10.4 mph - N/A   Clear
9:30 PM 59.0 °F 46.4 °F 63% 30.18 in - North 6.9 mph - N/A   Clear
10:00 PM 59.0 °F 46.4 °F 63% 30.18 in - North 8.1 mph - N/A   Clear
10:30 PM 59.0 °F 46.4 °F 63% 30.18 in - North 9.2 mph - N/A   Clear
11:00 PM 59.0 °F 42.8 °F 55% 30.18 in - North 9.2 mph - N/A   Clear
11:30 PM 59.0 °F 44.6 °F 59% 30.18 in - North 9.2 mph - N/A   Clear